Zurück zum Katalog

FENGYUN 1C DEB

AktivSSO
NORAD 40688·DEBRIS·🇨🇳 China

Gestartet May 10, 1999 von Taiyuan Satellite Launch Center

Loading…

Nächste Überflüge (nächste 24 Stunden)

TLE

AktuellSource: Space-Track

Epoche: Sep 14, 2026, 04:27 UTC

1 40688U 99025EWU 26257.18590431  .00000210  00000-0  20945-3 0  9990
2 40688  99.0048  39.7908 0141643  10.3031 350.0975 13.84071904337279

Verfolge FENGYUN 1C DEB in Echtzeit mit AllMySat

Download on the App Store